Terminal Aerodrome Forecast
Issued by NWS Missoula, MT

Home | Current Version | Previous Version | Text Only | Print | Product List | Glossary On
Versions: 1 2 3 4 5 6 7 8 9 10 11 12 13 14
000
FTUS45 KMSO 061120
TAFGPI
TAF
KGPI 061120Z 0612/0712 02015G22KT P6SM VCSH OVC070
     FM061500 02020G30KT P6SM OVC060
     FM061700 02012KT P6SM OVC100=

USA.gov is the U.S. government's official web portal to all federal, state and local government web resources and services.